Zurück zum Katalog

STARLINK-6226

AktivKommunikationVLEO
NORAD 56544·PAYLOAD·🇺🇸 United States

Gestartet May 14, 2023 von Cape Canaveral Space Force Station

Loading…

Nächste Überflüge (nächste 24 Stunden)

TLE

AktuellSource: CelesTrak SupGP

Epoche: Sep 14, 2026, 14:00 UTC

1 56544C 23065AT  26257.58381944 -.00024200  00000+0 -87696-3 0  2579
2 56544  42.9997 236.4546 0001073 265.6112 154.7250 15.27574492    11

Verfolge STARLINK-6226 in Echtzeit mit AllMySat

Download on the App Store